Weather History for Karlovy Vary, Czech Republic

Change the Weather History Date:

Tuesday, November 13, 2012

  Actual Average (EDQM) Record (EDQM)
Temperature  
Mean Temperature 36 °F -  
Max Temperature 41 °F 39 °F 55 °F (2010)
Min Temperature 30 °F 32 °F 26 °F (2012)
Degree Days  
Heating Degree Days 30    
Moisture  
Dew Point 33 °F    
Average Humidity 94    
Maximum Humidity 100    
Minimum Humidity 76    
Precipitation  
Precipitation 0.00 in - - ()
Sea Level Pressure  
Sea Level Pressure 30.45 in    
Wind  
Wind Speed 2 mph ()    
Max Wind Speed 6 mph    
Max Gust Speed -    
Visibility 3.2 miles    
Events Fog    
Averages and records for this station are not official NWS values.
T = Trace of Precipitation, MM = Missing Value Source: Averaged Metar Reports

Daily Weather History Graph

Daily Weather History Graph

Search for Another Location

Airport:

Trip Planner

Search our weather history database for the weather conditions in past years. The results will help you decide how hot, cold, wet, or windy it might be!

Date:

Astronomy

Nov. 13, 2012 Rise Set
Actual Time 7:18 AM CET 4:25 PM CET
Civil Twilight 6:43 AM CET 5:01 PM CET
Nautical Twilight 6:04 AM CET 5:40 PM CET
Astronomical Twilight 5:25 AM CET 6:18 PM CET
Moon 6:36 AM CET (11/13) 4:02 PM CET (11/13)
Length of Visible Light 10h 17m
Length of Day
9h 06m
Waning Crescent, 0% of the Moon is Illuminated
Nov 13
Waning Crescent
Nov 13
New
Nov 20
First Quarter
Nov 28
Full
Dec 6
Last Quarter

Hourly Weather History & Observations

Time (CET) Temp. Windchill Dew Point Humidity Pressure Visibility Wind Dir Wind Speed Gust Speed Precip Events Conditions
12:00 AM 37.4 °F 34.9 °F 35.6 °F 93% 30.36 in 6.2 mi SW 3.5 mph - N/A   Partly Cloudy
1:00 AM 35.6 °F 32.8 °F 35.6 °F 100% 30.36 in 6.2 mi SW 3.5 mph - N/A   Mostly Cloudy
2:00 AM 32.0 °F 28.7 °F 32.0 °F 100% 30.39 in 6.2 mi East 3.5 mph - N/A   Partly Cloudy
3:00 AM 32.0 °F - 30.2 °F 93% 30.39 in 6.2 mi East 2.3 mph - N/A   Partly Cloudy
4:00 AM 32.0 °F - 30.2 °F 93% 30.39 in 6.2 mi Calm Calm - N/A   Mostly Cloudy
4:49 AM 32.0 °F - 30.2 °F 93% 30.39 in 0.5 mi Calm Calm - N/A Fog Light Freezing Fog
5:00 AM 32.0 °F - 32.0 °F 100% 30.39 in 0.2 mi Calm Calm - N/A Fog Light Freezing Fog
5:30 AM 32.0 °F 28.7 °F 30.2 °F 93% 30.39 in 0.2 mi East 3.5 mph - N/A Fog Light Freezing Fog
6:00 AM 32.0 °F - 32.0 °F 100% 30.42 in - North - - N/A Fog Fog
6:30 AM 32.0 °F - 32.0 °F 100% 30.42 in 0.2 mi Calm Calm - N/A Fog Fog
7:00 AM 33.8 °F - 32.0 °F 93% 30.42 in 0.2 mi Variable 1.2 mph - N/A Fog Fog
7:30 AM 33.8 °F - 32.0 °F 93% 30.45 in 0.2 mi Variable 2.3 mph - N/A Fog Fog
8:00 AM 32.0 °F - 32.0 °F 100% 30.45 in 0.1 mi Calm Calm - N/A Fog Fog
8:30 AM 32.0 °F - 32.0 °F 100% 30.45 in 0.1 mi Calm Calm - N/A Fog Fog
9:00 AM 33.8 °F - 32.0 °F 93% 30.45 in 0.2 mi Variable 1.2 mph - N/A Fog Fog
9:30 AM 33.8 °F - 33.8 °F 100% 30.48 in 0.2 mi Variable 1.2 mph - N/A Fog Fog
10:00 AM 33.8 °F - 33.8 °F 100% 30.48 in 0.2 mi Variable 2.3 mph - N/A Fog Fog
10:30 AM 33.8 °F - 33.8 °F 100% 30.48 in 0.1 mi Variable 2.3 mph - N/A Fog Fog
11:00 AM 35.6 °F - 35.6 °F 100% 30.48 in 0.2 mi Variable 2.3 mph - N/A Fog Fog
11:30 AM 37.4 °F - 35.6 °F 93% 30.48 in 0.9 mi Variable 1.2 mph - N/A Fog Mostly Cloudy
11:42 AM 39.2 °F - 37.4 °F 93% 30.48 in 2.5 mi Calm Calm - N/A Fog Mostly Cloudy
12:00 PM 39.2 °F - 39.2 °F 100% 30.48 in 3.7 mi Variable 2.3 mph - N/A Fog Patches of Fog
12:30 PM 39.2 °F 37.0 °F 37.4 °F 93% 30.48 in 4.3 mi WNW 3.5 mph - N/A   Mostly Cloudy
1:00 PM 41.0 °F 39.0 °F 37.4 °F 87% 30.48 in 6.2 mi NW 3.5 mph - N/A   Scattered Clouds
1:30 PM 41.0 °F 39.0 °F 37.4 °F 87% 30.48 in 6.2 mi NNW 3.5 mph - N/A   Scattered Clouds
2:00 PM 41.0 °F 38.0 °F 35.6 °F 81% 30.45 in 6.2 mi NNW 4.6 mph - N/A   Scattered Clouds
2:30 PM 41.0 °F 38.0 °F 35.6 °F 81% 30.45 in 6.2 mi NNW 4.6 mph - N/A   Partly Cloudy
3:00 PM 41.0 °F 39.0 °F 33.8 °F 76% 30.45 in - North 3.5 mph - N/A   Clear
3:30 PM 41.0 °F 39.0 °F 33.8 °F 76% 30.45 in - North 3.5 mph - N/A   Clear
4:00 PM 39.2 °F 37.0 °F 33.8 °F 81% 30.45 in - NE 3.5 mph - N/A   Clear
4:30 PM 35.6 °F 32.8 °F 33.8 °F 93% 30.45 in - NE 3.5 mph - N/A   Clear
5:00 PM 35.6 °F 30.7 °F 32.0 °F 87% 30.45 in - NE 5.8 mph - N/A   Clear
5:30 PM 33.8 °F 30.8 °F 32.0 °F 93% 30.45 in - East 3.5 mph - N/A   Clear
6:00 PM 33.8 °F - 32.0 °F 93% 30.48 in - East 2.3 mph - N/A   Clear
6:30 PM 30.2 °F - 30.2 °F 100% 30.48 in - ESE 2.3 mph - N/A   Clear
7:00 PM 33.8 °F - 32.0 °F 93% 30.45 in - ENE 2.3 mph - N/A   Clear
7:30 PM 30.2 °F - 30.2 °F 100% 30.48 in - East 2.3 mph - N/A   Clear
8:00 PM 30.2 °F - 30.2 °F 100% 30.45 in - East 2.3 mph - N/A   Clear
8:30 PM 32.0 °F - 30.2 °F 93% 30.48 in 6.2 mi East 2.3 mph - N/A Fog Patches of Fog
9:00 PM 30.2 °F - 30.2 °F 100% 30.48 in 6.2 mi Variable 1.2 mph - N/A Fog Patches of Fog
9:30 PM 30.2 °F - 30.2 °F 100% 30.48 in 6.2 mi East 1.2 mph - N/A Fog Patches of Fog
10:00 PM 30.2 °F - 30.2 °F 100% 30.48 in 5.0 mi East 1.2 mph - N/A Fog Patches of Fog
11:00 PM 30.2 °F - 30.2 °F 100% 30.48 in 6.2 mi Calm Calm - N/A Fog Patches of Fog